Regional Weather Roundup
Issued by NWS

Home | Current Version | Previous Version | Text Only | Print | Product List | Glossary Off
Versions: 1 2 3 4 5 6 7 8 9 10 11 12 13 14 15 16 17 18 19 20 21 22 23 24 25 26 27 28 29 30 31 32 33 34 35 36 37 38 39 40 41 42 43 44 45 46 47 48 49 50

000
ASUS43 KLMK 011510
RWRKY
KENTUCKY REGIONAL WEATHER ROUNDUP
NATIONAL WEATHER SERVICE LOUISVILLE KY
1100 AM EDT MON SEP 01 2014

NOTE "FAIR" INDICATES FEW OR NO CLOUDS BELOW 12,000 FEET
WITH NO SIGNIFICANT WEATHER AND/OR OBSTRUCTIONS TO VISIBILITY.

KYZ001>023-026-027-061>063-070>075-011600-
WESTERN AND SOUTH CENTRAL KENTUCKY

CITY           SKY/WX    TMP DP  RH WIND       PRES   REMARKS
PADUCAH        CLOUDY    83  73  72 SW15G26   29.98F
HENDERSON      PTSUNNY   81  73  78 SW15G21   29.96F
OWENSBORO      MOSUNNY   82  75  78 S14       29.99F
HOPKINSVILLE   DRIZZLE   77  77 100 SW18      30.05S
BOWLING GREEN  PTSUNNY   82  72  71 SW15      30.06S
GLASGOW        MOSUNNY   81  72  73 SW14      30.07S
$$

KYZ024-025-028>034-038-045-046-053-011600-
NORTH CENTRAL KENTUCKY

CITY           SKY/WX    TMP DP  RH WIND       PRES   REMARKS
LOUISVILLE/SDF PTSUNNY   81  72  74 SW17G24   30.00F
LOUISVILLE/LOU CLOUDY    80  72  76 SW9       30.01F
FORT KNOX      PTSUNNY   81  75  83 SW13G24   30.01F
$$

KYZ035>037-039>044-047>052-055>060-089>105-011600-
NORTHEAST KENTUCKY

CITY           SKY/WX    TMP DP  RH WIND       PRES   REMARKS
LEXINGTON      PTSUNNY   81  73  76 SW10      30.07S
COVINGTON      PTSUNNY   78  73  84 SW9       30.01S
FRANKFORT      PTSUNNY   79  73  82 SW12      30.04S
$$

KYZ054-064>069-076>088-106>120-011600-
SOUTHEAST KENTUCKY

CITY           SKY/WX    TMP DP  RH WIND       PRES   REMARKS
JACKSON        PTSUNNY   78  71  79 VRB5      30.12S
LONDON         PTSUNNY   80  69  69 W8        30.13R
SOMERSET       CLOUDY    77  72  83 S6        30.12S
MIDDLESBORO    PTSUNNY   80  71  74 CALM      30.14S
MONTICELLO     MOSUNNY   81  72  74 SW8       30.13R
$$



USA.gov is the U.S. government's official web portal to all federal, state and local government web resources and services.